Hourly Weather Roundup
Issued by NWS Central Illinois

Home | Current Version | Previous Version | Text Only | Print | Product List | Glossary On
Versions: 1 2 3 4 5 6 7 8 9 10 11 12 13 14 15 16 17 18 19 20 21 22 23 24 25 26 27 28 29 30 31 32 33 34 35 36 37 38 39 40 41 42 43 44 45 46 47 48 49 50
000
NZUS43 KILX 201110
HWRILX

AREA WEATHER ROUNDUP
NATIONAL WEATHER SERVICE, LINCOLN IL
600 AM CDT SUN APR 20 2014


CITY           SKY/WX    TMP DP  RH WIND       PRES   REMARKS
BLOOMINGTON    MOCLDY    47  36  65 S13       30.22R
CHAMPAIGN      PTCLDY    41  36  82 E8        30.22S
DANVILLE       CLEAR     42  35  74 E6        30.21S
DECATUR        MOCLDY    42  37  82 SE3       30.22S
FLORA          NOT AVBL
GALESBURG      CLEAR     50  39  65 SE5       30.17S
JACKSONVILLE   MOCLDY    52  38  58 SE5       30.19F
LACON          PTCLDY    45  38  76 SE3       30.19S
LAWRENCEVILLE  CLEAR     48  40  73 NE5       30.23S
LITCHFIELD     PTCLDY    51  39  63 CALM      30.20S
$$


CITY           SKY/WX    TMP DP  RH WIND       PRES   REMARKS
LINCOLN        MOCLDY    47  39  73 SE3       30.21R
MACOMB         PTCLDY    49  39  67 S9        30.19S
MATTOON        PTCLDY    50  37  61 SE7       30.22R
MT CARMEL AP   CLEAR     48  41  76 E3        30.22S
OLNEY-NOBLE AP CLEAR     45  37  76 CALM      30.23R
PARIS          CLEAR     45  37  75 CALM      30.25R
PEORIA         PTCLDY    51  37  58 S6        30.20R
PONTIAC        PTCLDY    43  37  81 SE6       30.21S
RANTOUL        CLEAR     45  37  72 CALM      30.23S
ROBINSON       CLEAR     44  41  90 CALM      30.24S
SPRINGFIELD    MOCLDY    54  39  57 S9        30.20R
TAYLORVILLE    MOCLDY    52  37  58 SE8       30.20S
$$

...REGIONAL REPORTS...


CITY           SKY/WX    TMP DP  RH WIND       PRES   REMARKS
CHICAGO O`HARE PTCLDY    44  28  53 S7        30.21S
KANKAKEE       CLEAR     41  32  70 E5        30.24R
MOLINE         PTCLDY    51  36  56 S6        30.15S
MOUNT VERNON   CLEAR     45  32  61 NE3       30.22R
PITTSFIELD     MOCLDY    54  41  62 S3        30.18S
QUINCY         MOCLDY    58  39  49 S7        30.16S
ROCKFORD       MOCLDY    47  36  65 S10       30.21S
$$


CITY           SKY/WX    TMP DP  RH WIND       PRES   REMARKS
BURLINGTON     MOCLDY    56  41  57 S12       30.13F
CEDAR RAPIDS   MOCLDY    56  41  57 S10       30.09F
DES MOINES     MOCLDY    58  44  60 S10       30.04F
KIRKSVILLE     MOCLDY    49  41  74 S8        30.12F
OTTUMWA        MOCLDY    54  41  61 S12       30.08F
ST LOUIS       MOCLDY    53  42  66 CALM      30.20S
$$


CITY           SKY/WX    TMP DP  RH WIND       PRES   REMARKS
TERRE HAUTE    CLEAR     44  35  70 E3        30.23S
EVANSVILLE     PTCLDY    48  41  76 CALM      30.23R
INDIANAPOLIS   MOCLDY    43  31  62 NE3       30.25R
LAFAYETTE      CLEAR     42  30  62 E5        30.25S
MADISON        CLOUDY    54  38  54 S9        30.15R
MILWAUKEE      MOCLDY    46  32  58 S7        30.19S
$$





USA.gov is the U.S. government's official web portal to all federal, state and local government web resources and services.